FLOCK 2E'-14 (41762 NORAD) Tracking and Keplerian Element Data

This shows tracking and keplerian element data for the satellite.

Feedback or suggestion? Click here.




ElementValue
Catalog41762
NameFLOCK 2E'-14
Epoch Orbit10497
Epoch Day198.97078944
Epoch Year2018
RAAN178.9872
Inclination51.6356
Eccentricity0.0004181
Argument of Perigee8.9464
Mean Anonmoly351.161
Mean Motion15.77584555
Decay Rate0.00061601
L11 41762U 98067KJ 18198.97078944 .00061601 00000-0 36284-3 0 9995
L22 41762 51.6356 178.9872 0004181 8.9464 351.1610 15.77584555104975

Live tracking and technical data element details for FLOCK 2E'-14 (NORAD 41762). FLOCK 2E'-14 can be tracked NOW for your location showing map with azimuth and elevation plus other details from your city location.

Track the satellite on the map from your city or location and see movement details for azimuth, elevation, latitude, longitude, range, height, and movement on the map or in text.







IsCatalogInMostPopularTable: catalog: 41762, numindb: 76
Update: records affected: 1



GetName: 41762 FLOCK 2E'-14

Hit Count: updated at: Thu, 19 Jul 2018 21:22:55 GMT